This is the latest recevied weather packets stored in our database for station/object W4CPD. If no packets are shown the sender has not sent any weather packets the latest 10 day(s).
| Time | Temp. | Humidity | Pressure | Rain* | Wind** | Luminosity | Snow |
|---|---|---|---|---|---|---|---|
| 1777977618 | 11.11° C | 95% | 1015.3 hPa | 0 mm | - | - | - |
| 1777976134 | 11.67° C | 94% | 1015.3 hPa | 0 mm | - | - | - |
| 1777975514 | 11.67° C | 94% | 1015.2 hPa | 0 mm | - | - | - |
| 1777975235 | 11.67° C | 94% | 1015.2 hPa | 0 mm | - | - | - |
| 1777972212 | 11.67° C | 94% | 1014.9 hPa | 0 mm | - | - | - |
| 1777971313 | 11.67° C | 94% | 1014.7 hPa | 0 mm | - | - | - |
| 1777970414 | 11.67° C | 94% | 1014.4 hPa | 0 mm | - | - | - |
| 1777969512 | 11.67° C | 93% | 1014.3 hPa | 0 mm | - | - | - |
| 1777968934 | 11.67° C | 93% | 1014.4 hPa | 0 mm | - | - | - |
| 1777967417 | 12.22° C | 92% | 1014.7 hPa | 0 mm | - | - | - |
| 1777966815 | 12.22° C | 92% | 1014.6 hPa | 0 mm | - | - | - |
| 1777966515 | 12.22° C | 92% | 1014.5 hPa | 0 mm | - | - | - |
| 1777964433 | 12.22° C | 92% | 1015 hPa | 0 mm | - | - | - |
| 1777964114 | 12.22° C | 92% | 1015.2 hPa | 0 mm | - | - | - |
| 1777963815 | 12.22° C | 92% | 1015.3 hPa | 0 mm | - | - | - |
| 1777962312 | 12.78° C | 91% | 1015.6 hPa | 0 mm | - | - | - |
| 1777961739 | 12.78° C | 91% | 1015.6 hPa | 0 mm | - | - | - |
| 1777953914 | 15° C | 85% | 1016 hPa | 0 mm | - | - | - |
| 1777953631 | 15° C | 85% | 1016.2 hPa | 0 mm | - | - | - |
| 1777953013 | 15° C | 84% | 1016.3 hPa | 0 mm | - | - | - |
| 1777951513 | 15.56° C | 82% | 1016.1 hPa | 0 mm | - | - | - |
| 1777951219 | 15.56° C | 81% | 1016.3 hPa | 0 mm | - | - | - |
| 1777949715 | 16.67° C | 79% | 1016.1 hPa | 0 mm | - | - | - |
| 1777949415 | 16.67° C | 78% | 1016 hPa | 0 mm | - | - | - |
| 1777947016 | 17.22° C | 74% | 1016 hPa | 0 mm | - | - | - |
* Rain latest hour (hover to see other rain measurements)
** Current wind speed in m/s (hover to see current wind gust speed)